Showing default

IRIDIUM 116, 43072

Orbit data source: Space-Track

IRIDIUM 116, 43072 is a payload satellite owned by Iridium (US) in LEO that was launched on Sat, 23 Dec 2017 UTC via an FALCON 9 launch vehicle from the Air Force Western Test Range (AFWTR). Payload-class satellites include a variety of spacecraft equipped with specific instruments for various scientific and technological missions. These include communications satellites like Starlink; space stations such as the ISS; scientific satellites like the Hubble; Earth observation satellites from companies like Planet Labs, Umbra, and HawkEye 360; GPS; miniature CubeSats for education and research; and military/defense satellites.

Loading next visibility...
Identifier
43072, 2017-083C
Orbit
LEO
Country
Flag of USUS
Related business
Manufacturer
OATK SSG Gilbert
Mission
Operational Commercial Communications
Bus & Motor
ELITEBUS, Unknown motor
Mass
860 kg wet, 700 kg dry
Launch date (UTC)
2017-12-23 (8 years ago)
Launch vehicle
FALCON 9
Launch site
Air Force Western Test Range (AFWTR)
Object type
Payload
Rocket body
Debris
Shape & HBR
Trap Box + 2 Pan, 4.8 m
Radar Cross Section
10.154 m², Large (>1 m²)

Expand to show TLE details & history
Last TLE update: 2 days ago

TLE from 2 days ago
0 IRIDIUM 116
1 43072U 17083C   26171.42434198  .00000005  00000-0 -54342-5 0  9996
2 43072  86.3962 320.6477 0001915 100.4565 259.6846 14.34217502444638
Epoch: 2026-06-20T10:11Z
TLE epoch observation values (Epoch: 2026-06-20T10:11:03.147Z)
Latitude
-0.00007°
Longitude
-100.75458°
Altitude
780.965 km
Speed
7.463 km/s
True Right ascension
21h 22m 35s
True Declination
0° 00' 00"
Sunlit
Object was in full shadow at epoch
Visualization orbit readout
Latitude
Unknown
Longitude
Unknown
Altitude
Unknown
Speed
Unknown
Apparent Right ascension
Unknown
Apparent Declination
Unknown
Sunlit
N/A
Visualization observer readout
Local Sidereal Time
21:39:01
Azimuth
Unknown
Elevation
Unknown
Doppler factor
Unknown
Orbital elements
Apogee altitude
776.002 km
Perigee altitude
773.263 km
Semi-major axis
7,152.769 km
Eccentricity
0.00019
Inclination
86.3962°
RAAN
320.6477°
Arg. of periapsis
100.4565°
True anomaly
259.66301°
Mean anomaly
259.6846°
Eccentric anomaly
259.67381°
Mean motion
3.58783 °/min
Orbital period
100.34 mins
BSTAR
-0.0000054342
Loading maneuver chart data...
Computing Atmospheric mass density...
Loading historical data...
Loading historical data...
Loading historical data...
Loading historical data...
Loading historical data...
Loading historical data...
Loading historical data...

Documentation

Showing up to 5 results
|